Date,TemperatureHighF,TemperatureAvgF,TemperatureLowF,DewpointHighF,DewpointAvgF,DewpointLowF,HumidityHigh,HumidityAvg,HumidityLow,PressureMaxIn,PressureMinIn,WindSpeedMaxMPH,WindSpeedAvgMPH,GustSpeedMaxMPH,PrecipitationSumIn
2013-2-1,33.4,31.6,29.3,32.8,30.7,28.3,98,97,95,30.41,30.15,4,1,8,0.00
2013-2-2,34.4,28.8,24.4,33.1,27.6,22.9,96,95,94,30.47,30.22,2,0,4,0.00
2013-2-3,32.5,29.0,23.6,31.5,27.9,22.1,97,96,94,30.21,30.06,4,0,6,0.00
2013-2-4,33.9,31.8,30.5,32.9,31.0,29.8,97,97,95,30.07,29.94,3,1,8,0.00
2013-2-5,38.1,34.2,30.2,35.8,32.9,29.5,97,95,91,29.94,29.74,8,3,14,0.55
2013-2-6,39.3,34.5,32.1,33.8,31.9,30.7,95,90,80,29.99,29.82,10,2,17,0.04
2013-2-7,38.5,34.8,32.4,35.5,33.2,31.4,97,94,88,29.97,29.85,3,0,7,0.01
2013-2-8,42.9,34.1,27.3,33.1,29.9,25.5,97,85,55,30.06,29.97,4,1,9,0.00
2013-2-9,37.2,28.2,22.9,30.5,25.6,21.4,95,90,74,30.16,29.98,6,1,10,0.00
2013-2-10,34.2,27.7,22.9,29.6,25.5,21.6,96,92,83,30.25,30.16,8,2,11,0.00
2013-2-11,34.4,30.6,27.2,29.8,27.5,24.5,92,88,82,30.20,30.15,4,0,6,0.00
2013-2-12,37.4,33.0,30.1,34.2,30.2,28.0,92,89,83,30.24,30.07,8,3,16,0.00
2013-2-13,45.9,36.9,30.8,35.4,29.9,24.7,97,77,47,30.28,30.06,7,1,14,0.00
2013-2-14,39.9,33.4,28.2,28.2,25.7,22.8,81,73,60,30.49,30.28,6,2,8,0.00
2013-2-15,45.6,35.5,28.1,34.2,29.6,25.3,92,80,62,30.49,30.22,7,2,11,0.00
2013-2-16,40.7,34.7,29.1,35.1,31.8,27.8,96,89,78,30.22,29.84,11,3,17,0.00
2013-2-17,42.9,34.4,28.2,31.0,26.2,20.6,95,74,43,30.04,29.87,5,2,11,0.01
2013-2-18,42.1,32.8,25.9,29.1,25.2,20.9,88,74,54,30.04,29.73,6,1,11,0.00
2013-2-19,36.7,32.1,29.6,33.5,30.2,27.5,96,93,86,29.82,29.67,3,1,5,0.14
2013-2-20,37.4,29.5,23.1,29.4,24.8,21.1,95,83,60,29.95,29.82,8,2,12,0.05
2013-2-21,33.2,28.9,23.3,29.8,26.1,20.3,95,89,84,29.97,29.91,4,1,8,0.00
2013-2-22,35.7,32.1,28.6,34.5,30.5,27.4,97,94,80,29.93,29.52,14,6,22,0.15
2013-2-23,43.6,32.9,26.8,28.9,25.9,23.2,87,76,50,30.15,29.58,9,3,18,0.00
2013-2-24,35.4,29.7,23.4,29.1,25.9,21.2,94,86,77,30.26,30.02,7,2,14,0.00
2013-2-25,36.8,32.8,29.4,33.2,30.1,26.0,95,90,78,30.03,29.82,9,3,14,0.04
2013-2-26,38.7,31.1,24.9,28.5,26.1,23.4,95,82,65,30.26,30.03,9,2,16,0.01
2013-2-27,43.4,35.5,28.6,30.3,27.3,25.2,90,73,53,30.22,30.16,7,2,11,0.03
2013-2-28,41.9,34.9,31.1,34.8,32.3,29.6,96,91,74,30.29,30.18,5,1,10,0.24